EW6196 Weather Reports


time (UTC)temp
F
wind
direction
speed
knots
gust
knots
rain 1hr
in
rain 24hr
in
rain mn
in
humidity
%
barometer
mb
20220927005613 58 121 0.0 0.9 0.00 0.00 0.00 45 1015.5
20220927004838 58 121 0.0 0.0 0.00 0.00 0.00 45 1015.5
20220927004339 58 121 0.0 0.9 0.00 0.00 0.00 44 1015.4
20220927003838 59 121 0.0 0.9 0.00 0.00 0.00 44 1015.4
20220927003338 59 121 0.0 2.6 0.00 0.00 0.00 44 1015.4
20220927002839 59 121 0.0 2.6 0.00 0.00 0.00 43 1015.3
20220927002339 59 121 0.0 1.7 0.00 0.00 0.00 43 1015.3
20220927001839 59 121 0.0 1.7 0.00 0.00 0.00 42 1015.3
20220927001338 60 121 0.0 1.7 0.00 0.00 0.00 42 1015.4
20220927000838 60 121 0.9 2.6 0.00 0.00 0.00 42 1015.4
20220927000606 60 120 0.9 3.5 0.00 0.00 0.00 41 1015.3
20220926235835 60 113 0.9 3.5 0.00 0.00 0.00 41 1015.3
20220926235333 60 112 0.0 3.5 0.00 0.00 0.00 41 1015.1
20220926234832 61 58 0.0 2.6 0.00 0.00 0.00 40 1015.1
20220926234332 61 78 0.0 1.7 0.00 0.00 0.00 40 1015.0
20220926233830 61 78 0.0 3.5 0.00 0.00 0.00 39 1015.0
20220926233559 61 78 0.0 3.5 0.00 0.00 0.00 38 1015.0
20220926232827 62 78 0.9 3.5 0.00 0.00 0.00 38 1014.9
20220926232327 62 32 0.0 3.5 0.00 0.00 0.00 38 1015.0
20220926231826 62 308 0.0 1.7 0.00 0.00 0.00 37 1015.1
20220926231326 63 289 0.0 1.7 0.00 0.00 0.00 38 1015.1
20220926231057 63 189 0.0 4.3 0.00 0.00 0.00 37 1015.1
20220926230324 63 189 0.9 4.3 0.00 0.00 0.00 36 1015.0
20220926225824 64 139 0.9 4.3 0.00 0.00 0.00 37 1015.0
20220926225549 64 138 0.9 4.3 0.00 0.00 0.00 36 1015.1
20220926225314 64 140 0.9 6.1 0.00 0.00 0.00 35 1015.1
20220926224536 64 143 0.9 6.1 0.00 0.00 0.00 35 1015.3
20220926224302 64 170 0.9 3.5 0.00 0.00 0.00 35 1015.1
20220926223525 65 172 0.9 3.5 0.00 0.00 0.00 34 1015.3
20220926223249 65 95 0.9 5.2 0.00 0.00 0.00 34 1015.3
20220926222241 65 101 1.7 5.2 0.00 0.00 0.00 33 1015.3
20220926221744 65 96 0.9 7.0 0.00 0.00 0.00 33 1015.1
20220926221740 65 96 1.7 7.0 0.00 0.00 0.00 33 1015.1
20220926221012 65 75 0.9 6.1 0.00 0.00 0.00 34 1015.1
20220926220238 65 206 1.7 7.0 0.00 0.00 0.00 34 1015.4
20220926220008 65 97 0.9 7.0 0.00 0.00 0.00 35 1015.3
20220926215236 65 116 0.9 5.2 0.00 0.00 0.00 35 1015.4
20220926214736 65 109 1.7 6.1 0.00 0.00 0.00 35 1015.3
20220926214236 65 112 1.7 6.1 0.00 0.00 0.00 35 1015.5
20220926214006 65 91 2.6 7.8 0.00 0.00 0.00 34 1015.4
20220926213236 65 128 1.7 7.8 0.00 0.00 0.00 34 1015.4
20220926212734 65 96 1.7 6.1 0.00 0.00 0.00 33 1015.3
20220926212232 65 136 1.7 7.8 0.00 0.00 0.00 33 1015.1
20220926211730 65 103 1.7 7.8 0.00 0.00 0.00 34 1015.4
20220926211607 65 114 1.7 8.7 0.00 0.00 0.00 33 1015.3
20220926211459 65 95 1.7 8.7 0.00 0.00 0.00 35 1015.1
20220926210726 65 111 1.7 8.7 0.00 0.00 0.00 33 1015.3
20220926205956 65 116 1.7 8.7 0.00 0.00 0.00 32 1015.1
20220926205831 65 115 0.9 5.2 0.00 0.00 0.00 32 1015.1
20220926204814 65 160 0.9 7.0 0.00 0.00 0.00 34 1015.0
20220926204718 64 198 0.9 7.0 0.00 0.00 0.00 34 1015.0
20220926204440 65 145 0.9 5.2 0.00 0.00 0.00 35 1015.1
20220926203702 65 160 0.9 6.1 0.00 0.00 0.00 35 1015.1
20220926202924 65 163 0.9 6.1 0.00 0.00 0.00 38 1015.1
20220926202420 65 145 0.9 5.2 0.00 0.00 0.00 38 1014.9
20220926201642 65 158 0.0 3.5 0.00 0.00 0.00 38 1014.9
20220926201136 64 237 0.9 3.5 0.00 0.00 0.00 40 1015.0
20220926200856 64 63 0.9 7.0 0.00 0.00 0.00 39 1015.1
20220926200729 64 103 0.9 7.0 0.00 0.00 0.00 38 1015.0
20220926195618 64 113 0.9 7.8 0.00 0.00 0.00 39 1015.1
20220926195111 64 113 0.9 7.8 0.00 0.00 0.00 39 1015.4
20220926195107 64 92 0.9 6.1 0.00 0.00 0.00 38 1015.4
20220926194331 64 94 0.9 6.1 0.00 0.00 0.00 38 1015.4
20220926193554 64 121 0.9 6.1 0.00 0.00 0.00 39 1015.4
20220926193047 64 123 0.9 7.0 0.00 0.00 0.00 38 1015.3
20220926192814 63 121 1.7 7.0 0.00 0.00 0.00 37 1015.4
20220926192036 63 44 1.7 7.0 0.00 0.00 0.00 38 1015.4
20220926191534 63 136 1.7 7.0 0.00 0.00 0.00 38 1015.5
20220926191306 62 149 1.7 6.1 0.00 0.00 0.00 40 1015.7
20220926190534 62 111 0.9 6.1 0.00 0.00 0.00 40 1015.6
20220926190304 62 112 0.9 5.2 0.00 0.00 0.00 41 1015.7
20220926185808 61 64 0.9 7.0 0.00 0.00 0.00 41 1015.7
20220926185533 61 136 0.9 7.0 0.00 0.00 0.00 42 1015.7
20220926184533 60 219 0.9 6.1 0.00 0.00 0.00 40 1015.7
20220926184030 61 123 0.9 6.1 0.00 0.00 0.00 42 1015.8
20220926183527 60 96 0.9 6.1 0.00 0.00 0.00 43 1015.8
20220926183026 60 94 0.9 3.5 0.00 0.00 0.00 43 1015.9
20220926182758 60 182 0.9 4.3 0.00 0.00 0.00 43 1015.9
20220926182257 60 136 0.9 6.1 0.00 0.00 0.00 43 1015.8
20220926181526 60 127 0.9 6.1 0.00 0.00 0.00 42 1015.9
20220926181026 60 148 0.9 5.2 0.00 0.00 0.00 43 1015.8
20220926180754 60 166 1.7 7.0 0.00 0.00 0.00 44 1015.8
20220926180252 60 80 1.7 7.0 0.00 0.00 0.00 44 1015.8
20220926175523 61 142 0.9 3.5 0.00 0.00 0.00 44 1015.9
20220926175519 61 122 1.7 7.0 0.00 0.00 0.00 42 1015.9
20220926174521 61 134 0.9 7.8 0.00 0.00 0.00 44 1015.9
20220926174246 61 113 0.9 7.8 0.00 0.00 0.00 43 1015.9
20220926173514 61 140 0.9 4.3 0.00 0.00 0.00 44 1016.1
20220926173014 61 112 0.9 4.3 0.00 0.00 0.00 45 1016.0
20220926172744 60 101 0.9 6.1 0.00 0.00 0.00 45 1015.9
20220926172619 60 79 0.9 6.1 0.00 0.00 0.00 46 1016.1
20220926171513 60 113 0.9 7.0 0.00 0.00 0.00 45 1016.0
20220926171016 59 126 1.7 7.8 0.00 0.00 0.00 43 1016.1
20220926171012 59 126 1.7 7.8 0.00 0.00 0.00 44 1016.1
20220926170010 59 178 2.6 7.8 0.00 0.00 0.00 44 1016.1
20220926165740 59 111 2.6 7.8 0.00 0.00 0.00 43 1016.2
20220926165009 60 90 1.7 7.0 0.00 0.00 0.00 44 1016.1
20220926164741 60 74 0.9 7.0 0.00 0.00 0.00 46 1016.1
20220926164010 59 63 0.9 6.1 0.00 0.00 0.00 46 1016.1
20220926163740 60 176 0.9 4.3 0.00 0.00 0.00 48 1016.1
20220926163010 59 169 0.9 5.2 0.00 0.00 0.00 49 1016.1
20220926162740 59 157 0.9 6.1 0.00 0.00 0.00 49 1016.2
20220926162240 59 161 0.9 6.1 0.00 0.00 0.00 49 1016.2
20220926162114 58 125 0.9 5.2 0.00 0.00 0.00 50 1016.2
20220926161010 58 123 1.7 6.1 0.00 0.00 0.00 51 1016.3
20220926160510 58 169 1.7 7.8 0.00 0.00 0.00 52 1016.4
20220926160240 58 36 0.9 7.8 0.00 0.00 0.00 51 1016.4
20220926155740 58 128 0.9 5.2 0.00 0.00 0.00 53 1016.4
20220926155613 58 78 0.9 7.8 0.00 0.00 0.00 53 1016.3
20220926154738 58 71 1.7 7.8 0.00 0.00 0.00 52 1016.2
20220926154006 57 105 1.7 5.2 0.00 0.00 0.00 53 1016.2
20220926153738 57 102 1.7 6.1 0.00 0.00 0.00 53 1016.2
20220926153238 57 117 0.9 7.0 0.00 0.00 0.00 53 1016.1
20220926152507 57 99 0.9 7.0 0.00 0.00 0.00 54 1016.1
20220926152007 56 113 0.9 5.2 0.00 0.00 0.00 56 1016.1
20220926151507 56 115 0.9 5.2 0.00 0.00 0.00 57 1016.1
20220926151237 56 116 0.9 6.1 0.00 0.00 0.00 57 1016.1
20220926150506 56 123 0.9 6.1 0.00 0.00 0.00 57 1016.1
20220926150006 56 90 0.9 5.2 0.00 0.00 0.00 59 1016.2
20220926145506 55 117 1.7 7.8 0.00 0.00 0.00 58 1016.0
20220926145006 55 154 1.7 7.8 0.00 0.00 0.00 57 1016.0
20220926144506 55 96 0.9 7.0 0.00 0.00 0.00 58 1016.1
20220926144006 55 119 0.9 7.8 0.00 0.00 0.00 58 1015.9
20220926143504 55 125 1.7 7.8 0.00 0.00 0.00 57 1015.9
20220926143233 55 90 0.9 7.0 0.00 0.00 0.00 57 1015.9
20220926142733 55 24 0.9 6.1 0.00 0.00 0.00 58 1015.9
20220926142005 54 163 0.9 5.2 0.00 0.00 0.00 59 1015.7
20220926142001 54 166 0.9 5.2 0.00 0.00 0.00 58 1015.7
20220926141232 54 281 0.9 6.1 0.00 0.00 0.00 59 1015.6
20220926140731 54 80 0.9 6.1 0.00 0.00 0.00 60 1015.7
20220926135957 53 107 0.0 5.2 0.00 0.00 0.00 61 1015.7
20220926135454 53 109 0.0 5.2 0.00 0.00 0.00 62 1015.6
20220926135225 53 103 0.0 3.5 0.00 0.00 0.00 63 1015.6
20220926134454 52 87 0.0 3.5 0.00 0.00 0.00 63 1015.6
20220926134223 52 68 0.0 6.1 0.00 0.00 0.00 65 1015.5
20220926134058 52 56 0.0 6.1 0.00 0.00 0.00 66 1015.5
20220926132950 51 105 0.0 6.1 0.00 0.00 0.00 67 1015.4
20220926132722 51 119 0.0 1.7 0.00 0.00 0.00 67 1015.4
20220926131948 51 103 0.0 3.5 0.00 0.00 0.00 68 1015.3
20220926131720 50 100 0.0 3.5 0.00 0.00 0.00 69 1015.3
20220926130948 49 101 0.0 1.7 0.00 0.00 0.00 69 1015.1
20220926130717 49 66 0.0 1.7 0.00 0.00 0.00 70 1015.0
20220926125945 49 66 0.0 1.7 0.00 0.00 0.00 70 1015.0
20220926125713 49 333 0.0 1.7 0.00 0.00 0.00 70 1015.0
20220926124942 49 185 0.0 1.7 0.00 0.00 0.00 70 1014.9
20220926124442 49 185 0.0 1.7 0.00 0.00 0.00 71 1014.9
20220926123942 48 136 0.0 1.7 0.00 0.00 0.00 71 1014.8
20220926123442 48 136 0.0 2.6 0.00 0.00 0.00 71 1014.7
20220926122940 48 136 0.0 2.6 0.00 0.00 0.00 71 1014.7
20220926122441 48 128 0.0 1.7 0.00 0.00 0.00 71 1014.7
20220926122434 48 126 0.0 2.6 0.00 0.00 0.00 71 1014.7
20220926122037 48 126 0.0 1.7 0.00 0.00 0.00 71 1014.7
20220926121152 48 126 0.0 3.5 0.00 0.00 0.00 71 1014.7
20220926120416 48 105 0.0 3.5 0.00 0.00 0.00 71 1014.6
20220926115909 48 98 0.0 1.7 0.00 0.00 0.00 71 1014.6
20220926115403 48 279 0.0 1.7 0.00 0.00 0.00 71 1014.4
20220926115128 48 282 0.0 1.7 0.00 0.00 0.00 71 1014.3
20220926114351 48 269 0.0 1.7 0.00 0.00 0.00 71 1014.2
20220926114118 49 147 0.0 2.6 0.00 0.00 0.00 70 1014.3
20220926113842 49 147 0.0 3.5 0.00 0.00 0.00 70 1014.3
20220926113109 49 147 0.0 3.5 0.00 0.00 0.00 70 1014.2
20220926112323 49 148 0.0 2.6 0.00 0.00 0.00 70 1014.2
20220926111818 49 148 0.0 1.7 0.00 0.00 0.00 70 1014.2
20220926111542 49 148 0.0 1.7 0.00 0.00 0.00 70 1014.0
20220926111036 49 140 0.0 1.7 0.00 0.00 0.00 70 1014.1
20220926110300 49 139 0.0 0.9 0.00 0.00 0.00 70 1014.0
20220926105754 49 139 0.0 0.9 0.00 0.00 0.00 69 1014.0
20220926105749 49 139 0.0 1.7 0.00 0.00 0.00 69 1014.0
20220926104743 49 139 0.0 3.5 0.00 0.00 0.00 69 1014.0
20220926104249 49 117 0.0 2.6 0.00 0.00 0.00 69 1014.0
20220926104245 49 139 0.0 3.5 0.00 0.00 0.00 69 1014.0
20220926103243 49 117 0.0 1.7 0.00 0.00 0.00 69 1013.9
20220926103016 49 182 0.0 1.7 0.00 0.00 0.00 69 1013.8
20220926102740 49 214 0.0 1.7 0.00 0.00 0.00 69 1013.8
20220926101736 49 182 0.0 1.7 0.00 0.00 0.00 69 1013.9
20220926101505 49 182 0.0 3.5 0.00 0.00 0.00 68 1013.8
20220926100734 49 152 0.0 3.5 0.00 0.00 0.00 68 1013.8
20220926100234 49 140 0.0 2.6 0.00 0.00 0.00 68 1013.8
20220926095732 49 117 0.0 2.6 0.00 0.00 0.00 68 1013.8
20220926095501 49 174 0.0 4.3 0.00 0.00 0.00 68 1013.7
20220926094730 49 174 0.0 4.3 0.00 0.00 0.00 68 1013.7
20220926094500 49 180 0.0 3.5 0.00 0.00 0.00 68 1013.8
20220926094335 50 109 0.0 1.7 0.00 0.00 0.00 68 1013.7
20220926093230 50 86 0.0 3.5 0.00 0.00 0.00 67 1013.7
20220926092959 50 86 0.0 3.5 0.00 0.00 0.00 67 1013.7
20220926092226 50 146 0.0 1.7 0.00 0.00 0.00 67 1013.6
20220926091725 50 143 0.0 1.7 0.00 0.00 0.00 66 1013.5
20220926091223 50 143 0.0 0.9 0.00 0.00 0.00 66 1013.5
20220926090723 50 143 0.0 2.6 0.00 0.00 0.00 66 1013.5
20220926090217 50 144 0.0 2.6 0.00 0.00 0.00 66 1013.5
20220926085711 50 114 0.0 1.7 0.00 0.00 0.00 66 1013.5
20220926085206 51 115 0.0 1.7 0.00 0.00 0.00 65 1013.4
20220926084659 51 115 0.0 2.6 0.00 0.00 0.00 65 1013.4
20220926084153 51 115 0.0 2.6 0.00 0.00 0.00 65 1013.3
20220926083647 51 101 0.0 2.6 0.00 0.00 0.00 65 1013.3
20220926083141 51 80 0.0 1.7 0.00 0.00 0.00 65 1013.4
20220926082635 51 80 0.0 1.7 0.00 0.00 0.00 64 1013.3
20220926082129 51 77 0.0 1.7 0.00 0.00 0.00 64 1013.3
20220926081623 51 70 0.0 2.6 0.00 0.00 0.00 64 1013.3
20220926081117 51 70 0.0 2.6 0.00 0.00 0.00 63 1013.2
20220926080843 51 143 0.0 0.9 0.00 0.00 0.00 63 1013.2
20220926080106 51 143 0.0 1.7 0.00 0.00 0.00 63 1013.3
20220926075600 52 143 0.0 1.7 0.00 0.00 0.00 62 1013.3
20220926075151 52 144 0.0 2.6 0.00 0.00 0.00 61 1013.2
20220926075053 52 144 0.0 2.6 0.00 0.00 0.00 62 1013.3
20220926074817 52 144 0.0 4.3 0.00 0.00 0.00 61 1013.3
20220926073543 52 144 0.0 4.3 0.00 0.00 0.00 61 1013.3
20220926073048 52 146 0.0 1.7 0.00 0.00 0.00 60 1013.3
20220926073044 52 146 0.0 1.7 0.00 0.00 0.00 60 1013.3
20220926072044 53 142 0.0 1.7 0.00 0.00 0.00 60 1013.3
20220926071543 53 142 0.0 1.7 0.00 0.00 0.00 59 1013.3
20220926071042 53 142 0.0 1.7 0.00 0.00 0.00 59 1013.3
20220926070812 53 142 0.0 1.7 0.00 0.00 0.00 59 1013.3
20220926070041 53 143 0.0 1.7 0.00 0.00 0.00 58 1013.3
20220926065814 53 143 0.0 2.6 0.00 0.00 0.00 58 1013.2
20220926065042 53 141 0.0 3.5 0.00 0.00 0.00 57 1013.2
20220926064812 53 141 0.0 3.5 0.00 0.00 0.00 57 1013.2
20220926064041 54 144 0.0 2.6 0.00 0.00 0.00 57 1013.2
20220926063543 54 144 0.0 2.6 0.00 0.00 0.00 57 1013.2
20220926063043 54 138 0.0 3.5 0.00 0.00 0.00 56 1013.3
20220926062543 54 125 0.0 3.5 0.00 0.00 0.00 56 1013.2
20220926062043 54 124 0.0 2.6 0.00 0.00 0.00 56 1013.2
20220926061542 54 115 0.0 1.7 0.00 0.00 0.00 55 1013.1
20220926061042 54 111 0.0 3.5 0.00 0.00 0.00 55 1013.1
20220926060542 54 109 0.0 3.5 0.00 0.00 0.00 55 1013.1
20220926060317 55 117 0.0 2.6 0.00 0.00 0.00 54 1013.0
20220926060041 55 117 0.0 2.6 0.00 0.00 0.00 54 1013.0
20220926055042 55 116 0.9 2.6 0.00 0.00 0.00 54 1013.0
20220926054813 55 116 0.0 2.6 0.00 0.00 0.00 54 1013.0
20220926054312 55 116 0.0 2.6 0.00 0.00 0.00 53 1013.0
20220926053541 55 117 0.0 2.6 0.00 0.00 0.00 53 1013.1
20220926053045 56 114 0.9 5.2 0.00 0.00 0.00 52 1013.1
20220926053041 55 117 0.9 5.2 0.00 0.00 0.00 53 1013.1
20220926052312 56 98 0.0 5.2 0.00 0.00 0.00 52 1013.1
20220926051541 56 104 0.0 5.2 0.00 0.00 0.00 51 1013.1
20220926051041 56 118 0.9 3.5 0.00 0.00 0.00 51 1013.1
20220926050535 56 254 0.0 5.2 0.00 0.00 0.00 51 1013.1
20220926050306 56 99 0.0 5.2 0.00 0.00 0.00 50 1013.1
20220926050140 56 98 0.0 5.2 0.00 0.00 0.00 50 1013.1
20220926045306 56 98 0.0 5.2 0.00 0.00 0.00 50 1013.1
20220926044807 56 104 0.0 5.2 0.00 0.00 0.00 50 1013.2
20220926044036 57 194 0.0 5.2 0.00 0.00 0.00 49 1013.2
20220926043536 57 186 0.0 6.1 0.00 0.00 0.00 49 1013.1
20220926043306 57 148 0.0 6.1 0.00 0.00 0.00 49 1013.2
20220926043141 57 163 0.0 4.3 0.00 0.00 0.00 49 1013.1
20220926042040 57 117 0.9 5.2 0.00 0.00 0.00 48 1013.1
20220926042036 57 153 0.9 3.5 0.00 0.00 0.00 48 1013.1
20220926041037 57 78 0.0 5.2 0.00 0.00 0.00 48 1013.1
20220926041033 57 117 0.9 5.2 0.00 0.00 0.00 48 1013.1
20220926040911 57 109 0.0 3.5 0.00 0.00 0.00 49 1013.1
20220926035805 58 108 0.0 3.5 0.00 0.00 0.00 49 1013.1
20220926035305 58 133 0.0 3.5 0.00 0.00 0.00 49 1013.1
20220926034531 58 141 0.0 5.2 0.00 0.00 0.00 50 1013.0
20220926034255 58 150 0.9 5.2 0.00 0.00 0.00 50 1013.0
20220926033518 58 107 0.0 5.2 0.00 0.00 0.00 51 1013.0
20220926033012 58 92 0.0 3.5 0.00 0.00 0.00 51 1013.0
20220926032507 58 87 0.0 3.5 0.00 0.00 0.00 51 1013.0
20220926032001 58 253 0.0 2.6 0.00 0.00 0.00 51 1012.9
20220926031455 58 175 0.0 4.3 0.00 0.00 0.00 51 1012.9
20220926030947 58 176 0.9 4.3 0.00 0.00 0.00 51 1012.9
20220926030711 59 133 0.0 4.3 0.00 0.00 0.00 51 1012.9
20220926025934 59 134 0.0 2.6 0.00 0.00 0.00 51 1012.9
20220926025701 59 121 0.0 6.1 0.00 0.00 0.00 51 1012.8
20220926024923 59 121 0.0 6.1 0.00 0.00 0.00 51 1012.8
20220926024647 59 138 0.0 4.3 0.00 0.00 0.00 51 1012.8
20220926023910 60 137 0.9 5.2 0.00 0.00 0.00 51 1012.8
20220926023404 60 107 0.9 5.2 0.00 0.00 0.00 50 1012.9
20220926022859 60 107 0.9 5.2 0.00 0.00 0.00 50 1012.8
20220926022353 60 144 0.0 5.2 0.00 0.00 0.00 50 1012.8
20220926021846 60 109 0.0 2.6 0.00 0.00 0.00 50 1012.8
20220926021838 60 96 0.0 4.3 0.00 0.00 0.00 50 1012.8
20220926021440 60 109 0.0 4.3 0.00 0.00 0.00 50 1012.9
20220926020329 60 126 0.0 3.5 0.00 0.00 0.00 51 1012.7
20220926015822 60 126 0.0 1.7 0.00 0.00 0.00 51 1012.7
20220926015547 60 123 0.0 1.7 0.00 0.00 0.00 50 1012.7
20220926014813 61 123 0.0 3.5 0.00 0.00 0.00 50 1012.6
20220926014313 61 123 0.0 5.2 0.00 0.00 0.00 50 1012.5
20220926013814 61 109 0.9 5.2 0.00 0.00 0.00 49 1012.6
20220926013311 61 74 0.9 4.3 0.00 0.00 0.00 49 1012.5
20220926012811 61 119 0.0 4.3 0.00 0.00 0.00 49 1012.4
20220926012311 61 139 0.0 3.5 0.00 0.00 0.00 49 1012.3
20220926012039 61 105 0.0 2.6 0.00 0.00 0.00 49 1012.3
20220926011306 61 105 0.0 2.6 0.00 0.00 0.00 48 1012.2
20220926011038 62 103 0.0 2.6 0.00 0.00 0.00 48 1012.1
20220926010912 62 103 0.0 3.5 0.00 0.00 0.00 48 1012.1
20220926010413 62 103 0.0 3.5 0.00 0.00 0.00 47 1012.0